Wind_Speed
36 33 34 34 31 30 28 28 27 26 26 26 27 27 27 27 26 26 26 26 26 25 24 18 23 20 24 28 29 32 36 37 37 41 41 45 49 51 55 43 35 35 31 33 38 36 29 25 20
33 32 32 32 30 30 31 29 27 27 27 28 28 30 32 31 31 31 30 27 25 24 20 23 21 26 27 28 34 34 39 36 40 37 41 44 51 47 39 33 34 30 25 29 31 31 28 24 16
31 31 32 29 28 27 27 29 28 28 30 30 29 30 30 30 29 30 26 23 21 19 21 22 23 26 28 28 30 31 35 36 36 43 43 46 45 37 32 32 30 19 23 27 30 32 32 26 16
28 27 28 25 23 24 24 25 26 23 24 24 25 23 22 18 19 19 21 22 23 26 23 22 22 22 29 30 30 34 39 39 43 48 43 37 29 27 28 29 22 15 23 28 30 33 34 30 22
25 24 26 26 24 20 20 22 22 20 19 15 13 12 11 12 13 13 17 22 20 20 23 24 29 31 30 33 36 39 41 42 45 33 28 26 25 25 26 24 14 15 18 25 27 29 32 29 22
19 22 24 23 21 19 19 21 22 19 15 11 12 12 15 14 14 15 16 19 21 23 24 25 25 28 30 34 37 38 39 34 27 23 24 23 22 21 21 17 13 14 16 21 25 28 30 29 25
16 19 21 20 18 16 15 14 10 14 14 15 14 10 12 16 17 16 16 16 16 17 21 24 28 31 33 32 29 26 21 20 20 19 19 20 21 20 17 11 11 14 16 18 23 25 26 27 26
17 18 19 18 16 15 14 12 12 13 15 18 19 14 12 10 15 18 17 18 20 22 26 24 22 22 22 19 17 17 19 17 17 17 19 18 18 16 16 14 11 12 14 16 19 24 22 21 21
10 10 11 15 15 13 11 11 13 16 18 17 18 18 17 17 15 21 23 24 24 22 16 12 11 12 13 15 16 18 18 15 16 16 15 16 20 20 19 17 14 13 13 15 19 26 23 20 17
8 9 6 6 10 9 10 11 11 8 9 13 15 14 19 21 23 21 18 15 9 5 5 7 10 13 15 15 15 14 15 15 15 14 15 15 15 15 18 18 18 17 18 20 22 24 24 21 18
8 8 5 8 6 7 5 5 3 3 4 4 7 10 11 10 8 7 6 3 3 6 8 10 11 11 12 11 12 12 12 13 14 14 16 15 17 19 18 21 22 20 20 22 22 23 22 18 17
11 8 7 7 8 10 11 9 6 4 5 8 7 3 2 1 5 5 5 5 5 3 5 6 8 9 9 10 10 13 16 18 20 20 19 19 19 19 19 22 25 24 24 23 23 23 23 19 18
11 11 9 8 9 11 11 5 3 5 4 3 1 6 7 6 8 7 7 4 2 8 8 8 9 11 13 14 15 17 21 20 19 21 23 24 22 21 20 19 21 22 23 23 26 28 34 34 27
19 11 9 9 5 4 8 6 5 6 6 8 10 7 3 1 0 1 5 9 11 13 14 14 14 14 15 15 15 17 17 18 18 18 21 21 19 19 20 18 17 20 21 23 25 28 34 33 36
20 19 15 15 13 8 6 6 8 8 8 8 9 10 10 8 9 11 14 17 17 16 15 14 14 13 14 14 15 16 17 17 18 18 21 21 18 17 17 18 19 19 21 24 26 30 32 37 41
14 16 19 20 18 14 15 12 8 7 7 9 11 13 17 17 18 18 17 14 13 14 14 13 12 13 13 13 14 15 17 17 18 20 19 17 16 15 16 19 20 21 22 24 26 32 35 38 42
6 10 10 13 18 18 19 16 16 15 17 17 16 16 17 17 14 12 12 12 14 13 13 13 13 12 11 12 13 14 15 14 15 17 17 18 16 17 18 21 22 25 25 28 31 33 37 43 45
3 3 6 4 9 11 11 11 13 14 10 11 11 12 12 11 12 13 12 12 12 12 12 11 11 11 11 11 12 13 15 14 16 18 19 22 22 20 22 24 27 28 28 32 35 35 37 42 46
6 3 1 2 4 8 8 8 7 5 6 9 12 13 13 11 10 10 10 10 9 9 9 9 10 10 10 11 12 14 16 18 18 19 21 22 25 26 25 26 28 31 32 33 35 37 38 40 45
13 10 7 4 2 1 3 3 4 4 6 9 9 8 8 8 7 7 6 7 6 6 6 7 8 11 13 13 14 15 17 18 20 22 24 25 26 28 29 30 31 33 32 33 32 37 41 43 46
20 19 14 10 8 7 6 5 5 4 8 7 6 2 1 1 2 4 4 5 7 6 5 7 9 11 14 17 18 19 21 23 25 28 29 30 29 31 33 33 33 35 37 37 34 37 43 45 46
31 28 21 16 16 11 12 12 9 8 13 9 8 6 5 4 4 4 5 6 8 9 9 10 13 16 19 20 21 24 25 27 29 31 33 34 34 35 37 37 38 39 40 38 36 35 44 46 50
42 34 29 23 21 18 19 16 13 13 12 9 8 9 9 7 7 8 9 9 9 9 12 14 18 21 22 24 26 28 30 30 31 32 35 36 36 38 39 40 40 41 38 35 38 40 41 45 50
47 35 33 31 26 22 26 22 20 17 17 14 12 12 13 13 12 11 11 13 14 16 19 20 22 25 27 29 31 34 33 34 35 35 37 38 38 40 41 42 41 43 40 41 42 42 41 46 52
47 43 35 31 30 31 28 28 26 22 22 19 18 17 16 17 16 16 17 20 22 23 26 27 27 30 32 34 35 36 35 35 37 40 42 42 42 44 45 45 48 48 42 43 43 44 43 46 53
52 51 43 38 34 38 37 35 28 26 24 27 27 24 23 22 22 23 25 26 29 31 32 33 33 34 35 37 38 39 41 42 42 41 41 43 43 46 49 49 54 51 46 42 48 49 47 52 57
59 54 49 45 39 39 40 40 35 31 32 31 30 30 28 28 30 29 31 32 35 35 37 37 37 38 39 40 42 43 44 44 44 45 46 47 48 50 49 49 54 46 45 46 51 53 53 57 63
66 63 58 51 44 41 43 43 44 39 36 36 36 35 33 33 34 33 34 35 37 38 38 39 40 41 42 43 44 44 45 46 47 48 50 51 52 55 51 55 47 45 45 50 52 58 63 63 68
71 68 64 56 50 45 45 45 49 46 43 40 42 40 39 39 39 38 37 39 41 42 43 44 44 43 44 45 46 47 48 49 50 52 51 54 57 53 49 52 49 45 47 53 63 68 62 67 67
81 75 70 65 55 52 51 50 54 52 47 44 45 44 45 46 43 42 41 44 45 45 45 46 47 46 43 44 47 49 51 52 53 55 56 55 50 48 55 52 52 43 64 66 56 63 66 70 74
Wind_Direction
216 219 225 224 223 234 243 246 249 250 251 255 257 258 263 267 276 276 273 273 284 286 284 274 283 275 278 283 286 305 302 301 306 302 305 309 311 300 303 317 328 337 0 359 352 355 4 10 22
216 219 225 230 229 235 239 247 247 249 252 256 258 258 262 266 270 270 267 269 275 278 279 275 276 282 291 282 289 296 305 304 313 304 307 296 304 323 327 332 334 353 10 3 8 14 17 21 32
218 221 227 229 229 233 239 242 244 244 250 254 256 262 265 269 273 267 262 261 260 269 271 275 280 282 293 297 300 300 301 296 303 302 309 317 316 325 329 331 341 18 23 16 23 26 29 26 36
216 219 226 229 232 233 237 240 243 244 247 251 257 262 265 264 264 254 248 248 257 261 265 274 281 287 287 299 296 295 296 306 312 313 315 317 326 333 333 337 356 29 26 26 26 31 32 32 35
215 217 218 226 231 240 246 249 248 244 248 241 251 251 257 260 258 250 243 243 252 263 271 275 284 288 285 291 289 306 304 305 310 313 322 326 333 337 334 347 20 20 18 31 31 33 34 34 34
211 213 212 219 228 236 243 246 246 242 241 246 264 258 259 255 253 259 256 255 263 267 277 278 282 285 289 293 294 300 304 311 317 324 329 335 336 337 341 360 28 24 31 32 36 34 35 31 32
219 220 220 226 229 238 239 240 233 239 243 248 259 259 263 268 265 258 258 265 269 281 290 286 286 287 293 301 304 307 314 318 322 330 334 334 334 335 349 1 23 16 21 25 32 33 26 20 17
215 219 227 226 227 234 238 242 251 257 256 262 264 250 252 277 268 275 274 277 281 285 295 289 292 299 300 305 316 319 318 324 329 331 334 343 359 9 17 14 14 13 10 15 19 12 7 9 9
219 226 234 239 238 242 248 248 259 265 261 263 254 257 256 270 282 285 281 287 285 285 286 297 306 307 310 315 319 324 326 332 338 347 358 12 16 22 23 17 10 356 356 347 343 346 353 356 356
197 194 184 231 244 253 259 255 262 272 267 260 257 271 266 271 286 281 279 277 268 274 305 318 314 318 323 328 331 340 341 344 357 357 356 2 17 19 11 15 7 356 345 341 335 337 338 336 332
171 189 192 216 201 210 194 196 249 269 294 287 271 281 272 260 272 271 254 249 302 324 324 323 333 342 346 346 349 354 6 14 22 26 27 25 33 25 14 3 360 352 352 345 335 327 325 325 325
180 155 161 199 167 157 116 116 121 101 150 159 153 122 86 330 290 297 293 305 307 321 355 11 15 7 10 16 26 43 49 50 49 54 45 46 37 26 25 24 15 20 24 22 25 24 15 357 325
107 149 163 158 157 150 129 143 134 117 141 169 208 307 287 302 294 291 279 277 57 66 54 45 52 59 65 70 66 59 55 55 50 53 50 47 41 41 40 23 20 24 26 33 27 30 24 23 16
66 101 120 119 115 168 143 175 203 204 224 245 264 258 217 131 262 172 108 89 82 80 79 78 72 64 67 70 58 50 47 45 44 37 39 38 32 35 32 25 22 21 26 29 23 19 18 18 17
53 57 76 88 80 86 134 212 228 235 249 254 225 141 111 113 110 103 98 95 90 84 78 73 73 69 64 57 54 52 46 39 37 34 39 30 29 35 28 27 19 16 15 16 16 9 7 14 17
57 52 55 72 84 89 89 101 113 133 150 148 118 110 109 107 104 101 96 87 82 84 85 83 72 61 58 53 44 36 36 39 36 33 25 23 19 20 21 14 6 1 2 1 4 357 358 357 359
49 73 52 65 72 74 85 97 104 107 112 104 99 97 94 102 92 91 89 89 89 83 86 85 76 66 54 46 39 31 23 17 19 10 12 5 358 355 347 349 347 346 348 351 352 354 357 355 356
359 53 74 32 77 71 70 80 95 104 102 102 101 98 100 99 94 90 86 83 81 82 74 64 60 56 46 33 25 18 13 9 6 359 356 358 349 341 341 343 341 342 344 347 348 347 351 351 353
293 297 241 20 58 75 74 89 101 127 131 119 114 113 111 104 98 90 84 79 70 64 57 49 37 32 26 14 8 8 3 2 359 356 355 349 351 342 332 331 341 343 342 338 341 344 342 341 347
251 266 265 225 232 109 107 118 116 145 158 139 124 121 120 110 84 63 59 45 48 53 38 23 9 6 4 358 354 355 350 348 347 346 344 344 341 342 337 333 331 332 332 336 337 342 341 343 342
246 245 244 257 232 220 216 217 209 227 204 174 170 187 224 120 15 354 5 8 1 354 346 349 352 350 342 338 338 337 336 338 340 338 337 337 338 337 336 331 326 324 326 331 329 335 338 339 339
245 243 232 234 243 233 231 224 215 216 211 216 218 231 225 261 299 331 321 317 312 312 314 324 326 326 328 329 328 328 332 333 333 330 330 331 333 334 332 330 324 323 324 328 327 322 332 335 335
248 240 239 229 236 235 239 238 236 233 227 224 232 259 262 275 279 286 292 290 287 292 300 308 317 319 319 320 321 324 327 326 324 323 325 328 330 328 330 327 324 323 324 326 328 326 326 332 335
252 247 240 242 238 239 242 238 231 235 244 236 231 243 267 270 268 273 276 277 283 292 297 302 310 311 315 317 318 320 323 323 323 323 324 327 327 328 328 325 323 321 321 323 325 324 320 324 329
249 254 248 245 244 246 238 241 237 235 241 247 237 235 240 252 262 265 268 276 284 291 294 300 305 308 310 311 313 315 319 320 320 323 325 326 326 326 326 324 321 320 318 322 324 322 317 313 317
240 243 245 242 236 240 239 243 238 245 244 243 247 246 249 254 261 269 273 280 287 290 295 297 299 301 302 305 311 315 317 320 324 321 321 322 323 322 322 320 318 321 319 320 326 322 319 319 320
242 244 239 241 238 237 249 251 247 240 248 253 255 259 258 261 265 269 274 279 283 287 291 294 295 298 304 308 309 313 317 318 320 321 320 319 320 320 319 312 316 317 315 311 316 317 316 319 322
242 241 242 244 238 235 238 246 253 248 247 253 257 258 262 264 267 270 275 280 284 286 288 293 295 298 302 306 310 313 313 316 319 317 318 318 318 321 318 313 311 307 298 306 312 316 314 317 321
239 242 246 245 243 237 236 239 249 251 249 250 257 260 262 263 264 269 275 276 278 284 288 291 294 298 303 308 309 310 311 313 314 315 317 317 319 321 311 317 311 303 297 305 312 312 313 315 321
236 239 241 242 241 239 236 237 241 251 252 251 252 259 262 266 270 272 273 274 279 282 285 289 292 294 298 302 304 305 307 311 312 313 312 316 323 320 316 312 308 302 306 311 311 310 313 318 320
Height
10974 10979 10981 10984 10990 10990 10992 10995 10997 10998 11000 11002 11005 11005 11007 11008 11009 11009 11008 11009 11008 11008 11008 11008 11007 11007 11006 11004 11002 10999 10998 10995 10990 10989 10984 10981 10979 10975 10969 10963 10958 10954 10948 10944 10939 10932 10925 10921 10918
10974 10976 10978 10983 10987 10989 10991 10992 10994 10995 10997 10999 11000 11001 11003 11004 11005 11005 11005 11006 11006 11006 11006 11005 11005 11004 11003 11002 11000 10997 10994 10991 10988 10985 10982 10980 10973 10967 10964 10959 10956 10953 10949 10945 10940 10933 10927 10923 10921
10971 10975 10977 10981 10984 10986 10987 10989 10991 10993 10994 10996 10997 10998 10998 10999 11000 11000 11001 11002 11003 11003 11003 11003 11002 11001 11000 10998 10997 10994 10992 10989 10986 10983 10976 10972 10968 10965 10961 10959 10955 10952 10949 10946 10941 10935 10929 10925 10923
10969 10973 10976 10978 10980 10982 10983 10986 10987 10988 10989 10991 10992 10993 10994 10995 10995 10996 10997 10998 10999 11000 10999 10999 10998 10998 10996 10995 10993 10991 10988 10983 10979 10976 10973 10969 10966 10962 10959 10957 10954 10952 10949 10945 10941 10936 10932 10928 10927
10967 10971 10973 10975 10977 10979 10980 10981 10983 10985 10985 10987 10988 10990 10991 10991 10992 10993 10994 10995 10996 10996 10996 10995 10995 10993 10993 10991 10987 10985 10982 10979 10976 10972 10969 10967 10963 10961 10958 10955 10953 10950 10949 10946 10943 10938 10934 10932 10931
10968 10969 10970 10972 10975 10978 10979 10980 10981 10982 10984 10985 10986 10987 10988 10990 10991 10991 10992 10993 10994 10994 10994 10993 10992 10990 10988 10985 10984 10982 10978 10975 10972 10969 10967 10964 10962 10960 10956 10953 10952 10951 10948 10946 10944 10940 10936 10936 10935
10965 10968 10970 10972 10974 10976 10977 10978 10980 10982 10983 10983 10983 10984 10985 10986 10987 10988 10989 10990 10990 10990 10990 10988 10987 10985 10983 10982 10980 10977 10974 10973 10971 10968 10965 10963 10960 10957 10955 10953 10952 10950 10947 10946 10944 10941 10939 10939 10936
10962 10965 10968 10971 10973 10974 10974 10976 10977 10979 10980 10981 10982 10982 10983 10984 10985 10985 10986 10986 10987 10987 10985 10984 10983 10982 10980 10979 10977 10975 10974 10971 10968 10966 10964 10961 10959 10956 10954 10952 10952 10950 10946 10945 10943 10942 10941 10939 10937
10961 10964 10967 10969 10970 10972 10973 10974 10975 10976 10977 10978 10979 10980 10981 10981 10982 10982 10982 10982 10983 10982 10981 10981 10980 10980 10979 10978 10976 10974 10972 10969 10967 10965 10964 10962 10959 10956 10955 10953 10952 10951 10949 10946 10944 10942 10940 10939 10937
10960 10962 10964 10967 10969 10970 10971 10972 10973 10974 10974 10975 10977 10978 10978 10979 10979 10979 10979 10979 10979 10980 10980 10979 10979 10978 10977 10975 10974 10973 10971 10968 10966 10964 10962 10960 10958 10957 10956 10954 10953 10951 10948 10946 10944 10941 10938 10937 10935
10961 10963 10964 10965 10969 10970 10970 10971 10972 10972 10972 10973 10974 10976 10977 10978 10978 10978 10978 10978 10978 10978 10978 10978 10977 10975 10974 10973 10972 10972 10970 10968 10966 10964 10961 10960 10958 10957 10956 10955 10952 10951 10949 10946 10943 10940 10938 10935 10933
10963 10966 10966 10967 10969 10969 10969 10971 10973 10973 10974 10975 10976 10977 10977 10978 10978 10977 10978 10978 10977 10976 10976 10975 10975 10974 10974 10973 10972 10971 10970 10968 10967 10966 10964 10961 10959 10957 10956 10955 10953 10951 10949 10944 10941 10938 10934 10931 10928
10966 10967 10967 10967 10968 10969 10968 10971 10972 10973 10974 10975 10975 10975 10975 10975 10976 10976 10977 10976 10975 10975 10975 10975 10976 10975 10975 10974 10974 10972 10971 10970 10969 10968 10966 10963 10961 10959 10957 10957 10955 10952 10951 10947 10942 10937 10934 10929 10925
10971 10970 10968 10967 10966 10968 10966 10970 10971 10973 10974 10974 10974 10974 10973 10973 10974 10975 10975 10975 10975 10976 10977 10976 10976 10976 10976 10976 10975 10973 10972 10971 10971 10969 10967 10965 10964 10961 10958 10957 10956 10953 10952 10949 10944 10938 10934 10930 10926
10974 10973 10970 10966 10966 10966 10965 10968 10970 10972 10973 10973 10974 10973 10973 10974 10974 10975 10975 10976 10977 10978 10978 10978 10978 10978 10978 10977 10975 10975 10973 10973 10972 10970 10966 10965 10966 10964 10961 10957 10956 10954 10952 10947 10942 10937 10933 10929 10925
10975 10974 10973 10970 10967 10968 10966 10969 10970 10972 10973 10974 10974 10974 10974 10975 10976 10977 10978 10978 10978 10979 10979 10979 10980 10979 10979 10978 10977 10976 10976 10974 10973 10972 10969 10968 10966 10963 10961 10958 10956 10953 10949 10944 10941 10935 10930 10925 10920
10976 10975 10976 10975 10972 10971 10970 10972 10973 10975 10975 10975 10975 10976 10977 10978 10979 10979 10980 10979 10979 10980 10980 10979 10979 10979 10980 10979 10978 10978 10975 10974 10973 10972 10970 10968 10966 10963 10959 10956 10953 10950 10945 10941 10936 10931 10925 10919 10915
10975 10975 10975 10976 10973 10972 10973 10976 10975 10976 10978 10977 10977 10978 10978 10979 10980 10981 10981 10981 10981 10981 10981 10981 10980 10979 10979 10979 10979 10977 10976 10975 10973 10971 10970 10967 10963 10960 10957 10953 10949 10944 10940 10935 10930 10926 10923 10917 10912
10973 10973 10973 10973 10972 10972 10973 10975 10976 10978 10979 10980 10980 10980 10980 10981 10982 10983 10983 10982 10981 10981 10980 10980 10980 10980 10979 10978 10978 10976 10975 10973 10970 10969 10967 10963 10960 10957 10953 10949 10945 10939 10935 10930 10925 10921 10919 10913 10908
10970 10971 10971 10971 10972 10972 10973 10974 10976 10978 10980 10980 10980 10981 10981 10981 10982 10982 10982 10982 10981 10980 10980 10980 10980 10979 10978 10977 10976 10974 10973 10971 10968 10965 10962 10959 10955 10952 10948 10944 10940 10936 10931 10926 10922 10917 10913 10908 10903
10966 10967 10969 10970 10970 10971 10973 10973 10974 10976 10979 10979 10979 10979 10980 10980 10980 10980 10980 10979 10979 10979 10979 10979 10979 10978 10977 10975 10973 10971 10969 10966 10962 10958 10956 10953 10950 10946 10942 10938 10934 10930 10927 10922 10917 10912 10906 10902 10899
10958 10961 10966 10967 10968 10970 10971 10972 10972 10974 10975 10975 10976 10976 10977 10977 10977 10977 10978 10978 10977 10977 10977 10977 10976 10975 10973 10971 10969 10967 10964 10959 10956 10953 10950 10947 10943 10939 10936 10932 10928 10924 10920 10916 10911 10906 10902 10897 10891
10945 10955 10959 10963 10964 10967 10967 10968 10970 10970 10971 10970 10970 10971 10972 10973 10973 10974 10974 10975 10975 10975 10974 10973 10972 10970 10968 10967 10965 10962 10959 10955 10952 10949 10946 10942 10938 10934 10930 10926 10922 10918 10913 10909 10905 10901 10897 10891 10885
10931 10946 10952 10956 10959 10963 10962 10965 10966 10966 10966 10967 10967 10968 10968 10968 10969 10970 10971 10972 10972 10971 10970 10968 10966 10964 10963 10962 10960 10958 10955 10951 10948 10944 10941 10938 10933 10929 10925 10920 10916 10911 10906 10901 10897 10894 10890 10885 10881
10929 10932 10943 10949 10953 10953 10955 10957 10960 10962 10962 10963 10963 10964 10964 10965 10966 10967 10967 10967 10967 10966 10964 10962 10961 10959 10957 10956 10955 10953 10951 10947 10944 10939 10934 10931 10926 10921 10917 10912 10907 10902 10898 10893 10890 10886 10883 10879 10875
10921 10922 10931 10937 10942 10941 10945 10948 10953 10957 10957 10956 10957 10958 10959 10960 10961 10961 10961 10961 10960 10958 10956 10956 10955 10953 10952 10951 10949 10947 10944 10942 10938 10935 10931 10926 10921 10914 10907 10902 10897 10895 10891 10887 10882 10878 10874 10870 10866
10908 10917 10921 10925 10933 10935 10933 10936 10944 10948 10947 10949 10950 10951 10953 10953 10954 10955 10955 10954 10952 10951 10950 10948 10946 10945 10944 10943 10941 10939 10936 10933 10928 10925 10921 10915 10912 10907 10903 10896 10889 10885 10881 10878 10874 10869 10863 10857 10853
10894 10900 10906 10915 10924 10930 10929 10928 10929 10936 10939 10940 10941 10942 10944 10945 10946 10947 10947 10946 10944 10942 10941 10940 10938 10937 10936 10935 10932 10930 10927 10923 10920 10916 10910 10904 10899 10894 10889 10884 10880 10874 10869 10864 10861 10856 10851 10846 10840
10879 10885 10895 10905 10912 10919 10922 10924 10918 10922 10927 10931 10930 10932 10933 10935 10938 10938 10938 10935 10935 10933 10933 10932 10929 10928 10927 10925 10923 10919 10917 10915 10910 10905 10900 10894 10888 10882 10875 10870 10867 10865 10857 10851 10847 10842 10838 10833 10827
10856 10867 10877 10887 10900 10905 10909 10914 10908 10909 10915 10919 10921 10922 10922 10923 10926 10927 10926 10924 10924 10924 10924 10922 10920 10920 10921 10919 10915 10911 10908 10905 10901 10895 10889 10884 10878 10872 10866 10860 10856 10852 10845 10837 10832 10827 10822 10818 10812